This is the latest recevied weather packets stored in our database for station/object WX5KDM. If no packets are shown the sender has not sent any weather packets the latest 10 day(s).
| Time | Temp. | Humidity | Pressure | Rain* | Wind** | Luminosity | Snow |
|---|---|---|---|---|---|---|---|
| 1777904636 | 20.56° C | 67% | 1016.5 hPa | 0 mm | - | - | - |
| 1777904333 | 20° C | 67% | 1016.4 hPa | 0 mm | - | - | - |
| 1777904030 | 20° C | 66% | 1016.6 hPa | 0 mm | - | - | - |
| 1777903727 | 19.44° C | 67% | 1016.6 hPa | 0 mm | - | - | - |
| 1777903423 | 18.89° C | 70% | 1016.6 hPa | 0 mm | - | - | - |
| 1777903119 | 18.89° C | 71% | 1016.6 hPa | 0 mm | - | - | - |
| 1777902816 | 18.33° C | 72% | 1016.7 hPa | 0 mm | - | - | - |
| 1777902514 | 17.78° C | 71% | 1016.5 hPa | 0 mm | - | - | - |
| 1777902210 | 17.78° C | 74% | 1016.7 hPa | 0 mm | - | - | - |
| 1777901908 | 17.22° C | 74% | 1016.5 hPa | 0 mm | - | - | - |
| 1777901606 | 16.67° C | 75% | 1016.8 hPa | 0 mm | - | - | - |
| 1777901303 | 16.67° C | 74% | 1016.6 hPa | 0 mm | - | - | - |
| 1777901000 | 16.11° C | 76% | 1016.6 hPa | 0 mm | - | - | - |
| 1777900698 | 16.11° C | 77% | 1016.6 hPa | 0 mm | - | - | - |
| 1777900394 | 16.11° C | 76% | 1016.8 hPa | 0 mm | - | - | - |
| 1777900091 | 15.56° C | 79% | 1016.8 hPa | 0 mm | - | - | - |
| 1777899788 | 15° C | 79% | 1016.6 hPa | 0 mm | - | - | - |
| 1777899485 | 14.44° C | 80% | 1016.7 hPa | 0 mm | - | - | - |
| 1777899183 | 15° C | 79% | 1016.8 hPa | 0 mm | - | - | - |
| 1777898880 | 15° C | 80% | 1016.7 hPa | 0 mm | - | - | - |
| 1777898577 | 14.44° C | 81% | 1016.9 hPa | 0 mm | - | - | - |
| 1777898274 | 13.89° C | 83% | 1016.7 hPa | 0 mm | - | - | - |
| 1777897971 | 13.89° C | 83% | 1016.6 hPa | 0 mm | - | - | - |
| 1777897667 | 13.89° C | 83% | 1016.6 hPa | 0 mm | - | - | - |
| 1777897364 | 13.33° C | 84% | 1016.8 hPa | 0 mm | - | - | - |
* Rain latest hour (hover to see other rain measurements)
** Current wind speed in m/s (hover to see current wind gust speed)